Weather in Kardhitsa

Greece     39°21′53″N   21°55′17″E
temp.,
°C
wind,
m/s
gust,
m/s
humid.,
%
clouds,
%
prec.,
mm/h
press.,
hPa
HPBL,
m
28 february, sun
sun2823:00+11wsw11630 0.0 102122
02:00+10w11689 0.0 102122
05:00+9nw227626 0.0 102231
08:00+9nnw247453 0.0 1024177
11:00+10n337698 0.0 1026487
14:00+7nne239499 0.8 1026289
17:00+6nne1293100 0.5 1027236
20:00+6nnw119599 0.6 1028111
1 march, mon
mon123:00+6w119494 0.0 102999
02:00+5wnw019486 0.0 102843
05:00+5w119372 0.0 102730
08:00+5wsw119239 0.0 102730
11:00+10ne21750 0.0 1026563
14:00+12nne22666 0.0 1024765
17:00+13ene116519 0.0 1023661
20:00+9ene227438 0.1 102659
2 march, tue
tue223:00+6s117336 0.1 102823
02:00+6nnw127861 0.1 103036
05:00+5ne259096 0.4 1031343
08:00+5w228995 0.5 1032161
11:00+8n227179 0.1 1032822
14:00+10nnw335849 0.3 10311193
17:00+10nnw12530 0.0 10301110
20:00+6ssw23620 0.0 103127
3 march, wed
wed323:00+5wsw11610 0.0 103122
02:00+5wsw11650 0.0 103122
05:00+4sw11660 0.0 103122
08:00+5wsw11660 0.0 103022
11:00+10nne21510 0.0 1030450
14:00+13ne21440 0.0 1029610
17:00+13ene11470 0.0 1028453
20:00+8ssw22580 0.0 102922
4 march, thu
thu423:00+6sw11540 0.0 102922
02:00+5sw11520 0.0 102822
05:00+4wsw11530 0.0 102722
08:00+6sw01600 0.0 102622
11:00+11ne21540 0.0 1025383
14:00+14ne21500 0.0 1023597
17:00+14ne11563 0.0 1021326
20:00+9sw22639 0.0 102126